| time (UTC) | temp C | wind direction | speed KPH | gust KPH | rain 1hr cm | rain 24hr cm | rain mn cm | humidity % | barometer mb |
| 20260506170028 | 16 | 300 | 1.6 | 6.4 | 0.00 | 0.00 | 0.00 | 77 | 1020.3 |
| 20260506165514 | 16 | 285 | 3.2 | 9.7 | 0.00 | 0.00 | 0.00 | 79 | 1020.3 |
| 20260506165014 | 16 | 0 | 3.2 | 11.3 | 0.00 | 0.00 | 0.00 | 79 | 1020.3 |
| 20260506164528 | 16 | 276 | 4.8 | 11.3 | 0.00 | 0.00 | 0.00 | 79 | 1020.3 |
| 20260506164011 | 16 | 275 | 3.2 | 6.4 | 0.00 | 0.00 | 0.00 | 80 | 1020.3 |
| 20260506163511 | 16 | 254 | 1.6 | 8.0 | 0.00 | 0.00 | 0.00 | 80 | 1020.2 |
| 20260506163032 | 15 | 273 | 4.8 | 8.0 | 0.00 | 0.00 | 0.00 | 81 | 1020.2 |
| 20260506162513 | 15 | 190 | 4.8 | 8.0 | 0.00 | 0.00 | 0.00 | 81 | 1020.2 |
| 20260506162016 | 15 | 223 | 1.6 | 6.4 | 0.00 | 0.00 | 0.00 | 83 | 1020.2 |
| 20260506161534 | 15 | 216 | 1.6 | 6.4 | 0.00 | 0.00 | 0.00 | 81 | 1020.2 |
| 20260506161013 | 15 | 211 | 3.2 | 6.4 | 0.00 | 0.00 | 0.00 | 81 | 1020.2 |
| 20260506160517 | 15 | 241 | 3.2 | 6.4 | 0.00 | 0.00 | 0.00 | 81 | 1020.2 |
| 20260506160031 | 15 | 273 | 3.2 | 6.4 | 0.00 | 0.00 | 0.00 | 81 | 1020.3 |
| 20260506155514 | 15 | 254 | 3.2 | 6.4 | 0.00 | 0.00 | 0.00 | 81 | 1020.2 |
| 20260506155012 | 15 | 246 | 4.8 | 6.4 | 0.00 | 0.00 | 0.00 | 81 | 1020.1 |
| 20260506154532 | 15 | 240 | 1.6 | 6.4 | 0.00 | 0.00 | 0.00 | 82 | 1020.2 |
| 20260506154013 | 15 | 267 | 3.2 | 6.4 | 0.00 | 0.00 | 0.00 | 82 | 1020.2 |
| 20260506153511 | 14 | 277 | 3.2 | 9.7 | 0.00 | 0.00 | 0.00 | 82 | 1020.1 |
| 20260506153028 | 14 | 252 | 4.8 | 9.7 | 0.00 | 0.00 | 0.00 | 82 | 1020.2 |
| 20260506152512 | 14 | 210 | 4.8 | 8.0 | 0.00 | 0.00 | 0.00 | 82 | 1020.1 |
| 20260506152013 | 14 | 226 | 4.8 | 8.0 | 0.00 | 0.00 | 0.00 | 83 | 1020.1 |
| 20260506151530 | 14 | 180 | 3.2 | 8.0 | 0.00 | 0.00 | 0.00 | 83 | 1020.1 |
| 20260506151015 | 14 | 215 | 3.2 | 8.0 | 0.00 | 0.00 | 0.00 | 83 | 1020.1 |
| 20260506150512 | 14 | 219 | 3.2 | 8.0 | 0.00 | 0.00 | 0.00 | 84 | 1020.1 |
| 20260506150029 | 14 | 202 | 3.2 | 8.0 | 0.00 | 0.00 | 0.00 | 84 | 1020.1 |
| 20260506145510 | 14 | 217 | 3.2 | 6.4 | 0.00 | 0.00 | 0.00 | 85 | 1020.0 |
| 20260506145013 | 13 | 214 | 1.6 | 4.8 | 0.00 | 0.00 | 0.00 | 85 | 1020.0 |
| 20260506144529 | 13 | 190 | 1.6 | 4.8 | 0.00 | 0.00 | 0.00 | 85 | 1020.1 |
| 20260506144012 | 13 | 180 | 1.6 | 4.8 | 0.00 | 0.00 | 0.00 | 85 | 1020.1 |
| 20260506143513 | 13 | 188 | 1.6 | 4.8 | 0.00 | 0.00 | 0.00 | 85 | 1020.0 |
| 20260506143030 | 13 | 178 | 3.2 | 4.8 | 0.00 | 0.00 | 0.00 | 86 | 1019.9 |
| 20260506142513 | 13 | 0 | 0.0 | 4.8 | 0.00 | 0.00 | 0.00 | 86 | 1019.9 |
| 20260506142010 | 13 | 184 | 3.2 | 4.8 | 0.00 | 0.00 | 0.00 | 86 | 1019.9 |
| 20260506141534 | 13 | 0 | 0.0 | 6.4 | 0.00 | 0.00 | 0.00 | 87 | 1019.8 |
| 20260506141012 | 13 | 0 | 0.0 | 6.4 | 0.00 | 0.00 | 0.00 | 87 | 1019.8 |
| 20260506140513 | 13 | 171 | 0.0 | 4.8 | 0.00 | 0.00 | 0.00 | 87 | 1019.8 |
| 20260506140028 | 13 | 0 | 0.0 | 0.0 | 0.00 | 0.00 | 0.00 | 87 | 1019.7 |
| 20260506135512 | 13 | 0 | 0.0 | 0.0 | 0.00 | 0.00 | 0.00 | 87 | 1019.6 |
| 20260506135017 | 13 | 0 | 0.0 | 0.0 | 0.00 | 0.00 | 0.00 | 87 | 1019.6 |
| 20260506134527 | 13 | 0 | 0.0 | 1.6 | 0.00 | 0.00 | 0.00 | 87 | 1019.5 |
| 20260506134012 | 13 | 0 | 0.0 | 1.6 | 0.00 | 0.00 | 0.00 | 87 | 1019.6 |
| 20260506133512 | 13 | 0 | 0.0 | 1.6 | 0.00 | 0.00 | 0.00 | 87 | 1019.5 |
| 20260506133030 | 13 | 0 | 0.0 | 0.0 | 0.00 | 0.00 | 0.00 | 87 | 1019.5 |
| 20260506132514 | 13 | 0 | 0.0 | 0.0 | 0.00 | 0.00 | 0.00 | 87 | 1019.6 |
| 20260506132013 | 13 | 0 | 0.0 | 0.0 | 0.00 | 0.00 | 0.00 | 86 | 1019.5 |
| 20260506131528 | 13 | 0 | 0.0 | 0.0 | 0.00 | 0.00 | 0.00 | 86 | 1019.4 |
| 20260506131013 | 13 | 0 | 0.0 | 1.6 | 0.00 | 0.00 | 0.00 | 86 | 1019.5 |
| 20260506130514 | 13 | 0 | 0.0 | 1.6 | 0.00 | 0.00 | 0.00 | 86 | 1019.5 |
| 20260506130028 | 13 | 0 | 0.0 | 1.6 | 0.00 | 0.00 | 0.00 | 86 | 1019.4 |
| 20260506125513 | 13 | 0 | 0.0 | 3.2 | 0.00 | 0.00 | 0.00 | 86 | 1019.3 |
| 20260506125012 | 13 | 0 | 0.0 | 4.8 | 0.00 | 0.00 | 0.00 | 86 | 1019.3 |
| 20260506124529 | 13 | 191 | 0.0 | 6.4 | 0.00 | 0.00 | 0.00 | 86 | 1019.3 |
| 20260506124013 | 13 | 191 | 1.6 | 6.4 | 0.00 | 0.00 | 0.00 | 86 | 1019.3 |
| 20260506123515 | 13 | 191 | 1.6 | 4.8 | 0.00 | 0.00 | 0.00 | 86 | 1019.2 |
| 20260506123029 | 13 | 0 | 0.0 | 0.0 | 0.00 | 0.00 | 0.00 | 86 | 1019.2 |
| 20260506122513 | 13 | 0 | 0.0 | 0.0 | 0.00 | 0.00 | 0.00 | 85 | 1019.2 |
| 20260506122018 | 13 | 0 | 0.0 | 1.6 | 0.00 | 0.00 | 0.00 | 85 | 1019.2 |
| 20260506121529 | 13 | 0 | 0.0 | 1.6 | 0.00 | 0.00 | 0.00 | 85 | 1019.2 |
| 20260506121014 | 13 | 0 | 0.0 | 1.6 | 0.00 | 0.00 | 0.00 | 85 | 1019.1 |
| 20260506120511 | 13 | 0 | 0.0 | 1.6 | 0.00 | 0.00 | 0.00 | 85 | 1019.1 |
| 20260506120031 | 13 | 0 | 0.0 | 0.0 | 0.00 | 0.00 | 0.00 | 85 | 1019.1 |
| 20260506115516 | 13 | 0 | 0.0 | 4.8 | 0.00 | 0.00 | 0.00 | 85 | 1019.1 |
| 20260506115016 | 13 | 0 | 0.0 | 6.4 | 0.00 | 0.00 | 0.00 | 85 | 1019.1 |
| 20260506114528 | 13 | 161 | 0.0 | 6.4 | 0.00 | 0.00 | 0.00 | 85 | 1019.0 |
| 20260506114013 | 13 | 0 | 0.0 | 4.8 | 0.00 | 0.00 | 0.00 | 85 | 1019.0 |
| 20260506113513 | 13 | 0 | 0.0 | 4.8 | 0.00 | 0.00 | 0.00 | 85 | 1018.9 |
| 20260506113030 | 13 | 0 | 0.0 | 0.0 | 0.00 | 0.00 | 0.00 | 85 | 1018.9 |
| 20260506112513 | 13 | 0 | 0.0 | 0.0 | 0.00 | 0.00 | 0.00 | 85 | 1019.0 |
| 20260506112010 | 13 | 0 | 0.0 | 1.6 | 0.00 | 0.00 | 0.00 | 85 | 1018.9 |
| 20260506111527 | 13 | 0 | 0.0 | 6.4 | 0.00 | 0.00 | 0.00 | 85 | 1018.9 |
| 20260506111012 | 13 | 0 | 0.0 | 8.0 | 0.00 | 0.00 | 0.00 | 85 | 1018.7 |
| 20260506110512 | 13 | 188 | 3.2 | 8.0 | 0.00 | 0.00 | 0.00 | 85 | 1018.7 |
| 20260506110029 | 13 | 173 | 0.0 | 8.0 | 0.00 | 0.00 | 0.00 | 85 | 1018.7 |
| 20260506105512 | 13 | 0 | 0.0 | 8.0 | 0.00 | 0.03 | 0.00 | 85 | 1018.6 |
| 20260506105016 | 13 | 0 | 0.0 | 3.2 | 0.00 | 0.03 | 0.00 | 85 | 1018.6 |
| 20260506104529 | 13 | 0 | 0.0 | 3.2 | 0.00 | 0.03 | 0.00 | 85 | 1018.6 |
| 20260506104016 | 13 | 0 | 0.0 | 1.6 | 0.00 | 0.03 | 0.00 | 85 | 1018.5 |
| 20260506103514 | 13 | 0 | 0.0 | 0.0 | 0.00 | 0.03 | 0.00 | 85 | 1018.6 |
| 20260506103029 | 13 | 0 | 0.0 | 1.6 | 0.00 | 0.03 | 0.00 | 85 | 1018.6 |
| 20260506102514 | 13 | 0 | 0.0 | 1.6 | 0.00 | 0.03 | 0.00 | 85 | 1018.5 |
| 20260506102010 | 13 | 0 | 0.0 | 6.4 | 0.00 | 0.03 | 0.00 | 85 | 1018.3 |
| 20260506101530 | 13 | 0 | 0.0 | 6.4 | 0.00 | 0.03 | 0.00 | 85 | 1018.3 |
| 20260506101014 | 13 | 187 | 1.6 | 6.4 | 0.00 | 0.03 | 0.00 | 85 | 1018.2 |
| 20260506100517 | 13 | 178 | 3.2 | 6.4 | 0.00 | 0.03 | 0.00 | 85 | 1018.3 |
| 20260506100027 | 13 | 193 | 3.2 | 6.4 | 0.00 | 0.03 | 0.00 | 85 | 1018.3 |
| 20260506095512 | 13 | 177 | 0.0 | 4.8 | 0.00 | 0.03 | 0.00 | 85 | 1018.2 |
| 20260506095012 | 13 | 0 | 1.6 | 4.8 | 0.00 | 0.03 | 0.00 | 85 | 1018.4 |
| 20260506094530 | 13 | 216 | 0.0 | 4.8 | 0.00 | 0.03 | 0.00 | 84 | 1018.2 |
| 20260506094012 | 13 | 0 | 0.0 | 4.8 | 0.00 | 0.03 | 0.00 | 84 | 1018.3 |
| 20260506093514 | 13 | 216 | 1.6 | 4.8 | 0.00 | 0.03 | 0.00 | 84 | 1018.3 |
| 20260506093037 | 13 | 0 | 0.0 | 4.8 | 0.00 | 0.03 | 0.00 | 84 | 1018.3 |
| 20260506092513 | 13 | 0 | 0.0 | 4.8 | 0.00 | 0.03 | 0.00 | 84 | 1018.3 |
| 20260506092016 | 13 | 202 | 0.0 | 6.4 | 0.00 | 0.03 | 0.00 | 84 | 1018.3 |
| 20260506091531 | 13 | 202 | 3.2 | 6.4 | 0.00 | 0.03 | 0.00 | 84 | 1018.3 |
| 20260506091014 | 13 | 196 | 1.6 | 6.4 | 0.00 | 0.03 | 0.00 | 84 | 1018.3 |
| 20260506090514 | 13 | 192 | 3.2 | 6.4 | 0.00 | 0.03 | 0.00 | 84 | 1018.2 |
| 20260506090028 | 13 | 218 | 1.6 | 6.4 | 0.00 | 0.03 | 0.00 | 84 | 1018.2 |
| 20260506085513 | 13 | 217 | 3.2 | 6.4 | 0.00 | 0.03 | 0.00 | 83 | 1018.3 |
| 20260506085014 | 13 | 196 | 3.2 | 6.4 | 0.00 | 0.03 | 0.00 | 83 | 1018.3 |
| 20260506084534 | 13 | 215 | 3.2 | 6.4 | 0.00 | 0.03 | 0.00 | 84 | 1018.2 |
| 20260506084012 | 13 | 194 | 3.2 | 6.4 | 0.00 | 0.03 | 0.00 | 84 | 1018.3 |
| 20260506083513 | 13 | 207 | 1.6 | 6.4 | 0.00 | 0.03 | 0.00 | 84 | 1018.4 |
| 20260506083031 | 13 | 194 | 1.6 | 4.8 | 0.00 | 0.03 | 0.00 | 84 | 1018.4 |
| 20260506082513 | 13 | 198 | 1.6 | 4.8 | 0.00 | 0.03 | 0.00 | 84 | 1018.5 |
| 20260506082012 | 13 | 242 | 3.2 | 4.8 | 0.00 | 0.03 | 0.00 | 85 | 1018.4 |
| 20260506081528 | 13 | 187 | 0.0 | 3.2 | 0.00 | 0.03 | 0.00 | 85 | 1018.4 |
| 20260506081012 | 13 | 0 | 0.0 | 3.2 | 0.00 | 0.03 | 0.00 | 85 | 1018.4 |
| 20260506080511 | 13 | 0 | 0.0 | 1.6 | 0.00 | 0.03 | 0.00 | 85 | 1018.4 |
| 20260506073512 | 13 | 0 | 0.0 | 0.0 | 0.00 | 0.10 | 0.00 | 85 | 1018.1 |
| 20260506073029 | 13 | 0 | 0.0 | 0.0 | 0.00 | 0.10 | 0.00 | 84 | 1018.1 |
| 20260506072512 | 13 | 0 | 0.0 | 1.6 | 0.00 | 0.10 | 0.00 | 84 | 1018.0 |
| 20260506072014 | 13 | 0 | 0.0 | 3.2 | 0.00 | 0.10 | 0.00 | 84 | 1017.9 |
| 20260506071530 | 13 | 0 | 0.0 | 4.8 | 0.00 | 0.10 | 0.00 | 84 | 1018.0 |
| 20260506071013 | 13 | 259 | 0.0 | 4.8 | 0.00 | 0.10 | 0.00 | 84 | 1017.8 |
| 20260506070514 | 13 | 259 | 0.0 | 4.8 | 0.00 | 0.10 | 0.00 | 84 | 1017.8 |
| 20260506062512 | 13 | 269 | 4.8 | 9.7 | 0.00 | 0.18 | 0.10 | 84 | 1017.4 |
| 20260506062013 | 13 | 273 | 1.6 | 9.7 | 0.00 | 0.18 | 0.10 | 84 | 1017.4 |
| 20260506061528 | 13 | 288 | 1.6 | 9.7 | 0.00 | 0.18 | 0.10 | 84 | 1017.4 |
| 20260506061012 | 13 | 268 | 1.6 | 6.4 | 0.00 | 0.18 | 0.10 | 84 | 1017.3 |
| 20260506060513 | 13 | 306 | 3.2 | 9.7 | 0.00 | 0.18 | 0.10 | 84 | 1017.4 |
| 20260506051011 | 14 | 259 | 4.8 | 11.3 | 0.00 | 0.25 | 0.10 | 82 | 1016.8 |
| 20260506050512 | 14 | 246 | 6.4 | 11.3 | 0.00 | 0.25 | 0.10 | 81 | 1016.9 |
| 20260506045013 | 15 | 234 | 4.8 | 16.1 | 0.00 | 0.38 | 0.10 | 80 | 1016.8 |
| 20260506044538 | 15 | 262 | 8.0 | 16.1 | 0.00 | 0.38 | 0.10 | 80 | 1016.7 |
| 20260506044012 | 15 | 244 | 6.4 | 16.1 | 0.00 | 0.38 | 0.10 | 80 | 1016.6 |
| 20260506043513 | 15 | 262 | 9.7 | 16.1 | 0.00 | 0.38 | 0.10 | 79 | 1016.4 |
| 20260506043027 | 15 | 261 | 9.7 | 16.1 | 0.00 | 0.38 | 0.10 | 79 | 1016.4 |
| 20260506042512 | 16 | 252 | 9.7 | 16.1 | 0.00 | 0.38 | 0.10 | 80 | 1016.3 |
| 20260506042014 | 16 | 242 | 9.7 | 14.5 | 0.00 | 0.38 | 0.10 | 81 | 1016.2 |
| 20260506041541 | 16 | 237 | 4.8 | 9.7 | 0.00 | 0.38 | 0.10 | 81 | 1016.2 |
| 20260506041017 | 16 | 231 | 3.2 | 4.8 | 0.00 | 0.38 | 0.10 | 80 | 1016.2 |
| 20260506040516 | 16 | 219 | 1.6 | 4.8 | 0.00 | 0.38 | 0.10 | 80 | 1016.2 |
| 20260506040032 | 16 | 226 | 1.6 | 4.8 | 0.00 | 0.38 | 0.10 | 80 | 1016.2 |
| 20260506035512 | 16 | 226 | 1.6 | 3.2 | 0.00 | 0.58 | 0.10 | 80 | 1016.2 |
| 20260506035013 | 16 | 226 | 0.0 | 3.2 | 0.00 | 0.58 | 0.10 | 80 | 1016.1 |
| 20260506034531 | 16 | 226 | 0.0 | 4.8 | 0.00 | 0.58 | 0.10 | 80 | 1016.0 |
| 20260506034015 | 16 | 226 | 1.6 | 4.8 | 0.00 | 0.58 | 0.10 | 80 | 1016.0 |
| 20260506033513 | 16 | 0 | 0.0 | 4.8 | 0.00 | 0.58 | 0.10 | 80 | 1015.9 |
| 20260506033028 | 16 | 235 | 1.6 | 6.4 | 0.00 | 0.58 | 0.10 | 79 | 1015.9 |
| 20260506032514 | 16 | 203 | 1.6 | 8.0 | 0.00 | 0.58 | 0.10 | 79 | 1015.7 |
| 20260506032014 | 16 | 208 | 3.2 | 8.0 | 0.00 | 0.58 | 0.10 | 80 | 1015.6 |
| 20260506031530 | 16 | 225 | 4.8 | 8.0 | 0.00 | 0.58 | 0.10 | 79 | 1015.6 |
| 20260506031014 | 16 | 225 | 3.2 | 6.4 | 0.00 | 0.58 | 0.10 | 78 | 1015.6 |
| 20260506030515 | 16 | 209 | 3.2 | 8.0 | 0.00 | 0.58 | 0.10 | 78 | 1015.6 |
| 20260506030030 | 16 | 215 | 3.2 | 8.0 | 0.00 | 0.58 | 0.10 | 78 | 1015.5 |
| 20260506025513 | 16 | 208 | 3.2 | 9.7 | 0.00 | 0.58 | 0.10 | 78 | 1015.4 |
| 20260506025014 | 16 | 204 | 4.8 | 9.7 | 0.00 | 0.58 | 0.10 | 78 | 1015.4 |
| 20260506024528 | 17 | 207 | 6.4 | 11.3 | 0.00 | 0.58 | 0.10 | 78 | 1015.3 |
| 20260506024019 | 17 | 198 | 6.4 | 12.9 | 0.00 | 0.58 | 0.10 | 77 | 1015.1 |
| 20260506023514 | 17 | 228 | 8.0 | 14.5 | 0.00 | 0.58 | 0.10 | 76 | 1015.0 |
| 20260506023030 | 17 | 203 | 8.0 | 14.5 | 0.00 | 0.58 | 0.10 | 76 | 1014.9 |
| 20260506022513 | 17 | 209 | 6.4 | 9.7 | 0.00 | 0.58 | 0.10 | 76 | 1014.8 |
| 20260506022015 | 17 | 209 | 6.4 | 9.7 | 0.00 | 0.58 | 0.10 | 76 | 1014.9 |
| 20260506021528 | 17 | 193 | 3.2 | 9.7 | 0.00 | 0.58 | 0.10 | 75 | 1015.0 |
| 20260506021018 | 17 | 200 | 6.4 | 11.3 | 0.00 | 0.58 | 0.10 | 74 | 1015.0 |
| 20260506020517 | 17 | 200 | 6.4 | 11.3 | 0.00 | 0.58 | 0.10 | 74 | 1015.0 |
| 20260506020028 | 17 | 186 | 4.8 | 11.3 | 0.00 | 0.58 | 0.10 | 74 | 1015.0 |
| 20260506015513 | 17 | 229 | 6.4 | 12.9 | 0.00 | 0.61 | 0.10 | 74 | 1015.0 |
| 20260506015014 | 17 | 220 | 6.4 | 14.5 | 0.00 | 0.61 | 0.10 | 73 | 1014.9 |
| 20260506014530 | 18 | 224 | 8.0 | 14.5 | 0.00 | 0.61 | 0.10 | 72 | 1014.9 |
| 20260506014014 | 18 | 184 | 4.8 | 11.3 | 0.00 | 0.61 | 0.10 | 72 | 1014.8 |
| 20260506013512 | 18 | 184 | 4.8 | 9.7 | 0.00 | 0.61 | 0.10 | 73 | 1014.8 |
| 20260506013027 | 18 | 0 | 0.0 | 12.9 | 0.00 | 0.61 | 0.10 | 73 | 1014.8 |
| 20260506012512 | 18 | 0 | 1.6 | 12.9 | 0.00 | 0.61 | 0.10 | 71 | 1014.9 |
| 20260506012015 | 18 | 210 | 3.2 | 12.9 | 0.00 | 0.61 | 0.10 | 70 | 1014.8 |
| 20260506011539 | 18 | 192 | 6.4 | 12.9 | 0.00 | 0.61 | 0.10 | 70 | 1014.8 |
| 20260506011017 | 18 | 183 | 4.8 | 12.9 | 0.00 | 0.61 | 0.10 | 71 | 1014.6 |
| 20260506010514 | 18 | 213 | 3.2 | 9.7 | 0.00 | 0.61 | 0.10 | 72 | 1014.6 |
| 20260506010029 | 18 | 188 | 4.8 | 9.7 | 0.00 | 0.61 | 0.10 | 72 | 1014.6 |
| 20260506005515 | 18 | 203 | 4.8 | 9.7 | 0.00 | 0.64 | 0.10 | 75 | 1014.6 |
| 20260506005012 | 18 | 184 | 6.4 | 9.7 | 0.00 | 0.64 | 0.10 | 73 | 1014.6 |
| 20260506004540 | 18 | 255 | 4.8 | 9.7 | 0.00 | 0.64 | 0.10 | 73 | 1014.6 |
| 20260506004017 | 18 | 219 | 4.8 | 11.3 | 0.00 | 0.64 | 0.10 | 74 | 1014.6 |
| 20260506003514 | 17 | 254 | 4.8 | 11.3 | 0.00 | 0.64 | 0.10 | 74 | 1014.6 |
| 20260506003031 | 18 | 236 | 4.8 | 12.9 | 0.00 | 0.64 | 0.10 | 72 | 1014.6 |
| 20260506002516 | 18 | 215 | 6.4 | 12.9 | 0.00 | 0.64 | 0.10 | 71 | 1014.5 |
| 20260506002014 | 18 | 216 | 8.0 | 11.3 | 0.00 | 0.64 | 0.10 | 71 | 1014.5 |
| 20260506001531 | 18 | 229 | 6.4 | 12.9 | 0.00 | 0.64 | 0.10 | 71 | 1014.6 |
| 20260506001014 | 18 | 215 | 6.4 | 12.9 | 0.00 | 0.64 | 0.10 | 70 | 1014.5 |
| 20260506000516 | 18 | 229 | 8.0 | 12.9 | 0.00 | 0.64 | 0.10 | 71 | 1014.5 |
| 20260506000028 | 18 | 226 | 8.0 | 14.5 | 0.00 | 0.64 | 0.10 | 72 | 1014.4 |
| 20260505235514 | 18 | 239 | 9.7 | 16.1 | 0.00 | 0.64 | 0.10 | 71 | 1014.5 |
| 20260505235013 | 18 | 235 | 9.7 | 16.1 | 0.00 | 0.64 | 0.10 | 72 | 1014.4 |
| 20260505234531 | 18 | 246 | 8.0 | 17.7 | 0.00 | 0.64 | 0.10 | 71 | 1014.4 |
| 20260505234017 | 18 | 236 | 8.0 | 19.3 | 0.00 | 0.64 | 0.10 | 69 | 1014.4 |
| 20260505233512 | 19 | 216 | 8.0 | 19.3 | 0.00 | 0.64 | 0.10 | 69 | 1014.3 |
| 20260505233033 | 19 | 192 | 6.4 | 16.1 | 0.00 | 0.64 | 0.10 | 68 | 1014.3 |
| 20260505232517 | 20 | 189 | 9.7 | 16.1 | 0.00 | 0.64 | 0.10 | 69 | 1014.4 |
| 20260505232014 | 20 | 238 | 11.3 | 16.1 | 0.00 | 0.64 | 0.10 | 69 | 1014.4 |
| 20260505231538 | 18 | 238 | 6.4 | 12.9 | 0.00 | 0.64 | 0.10 | 69 | 1014.3 |
| 20260505231012 | 18 | 217 | 6.4 | 12.9 | 0.00 | 0.64 | 0.10 | 70 | 1014.3 |
| 20260505230515 | 18 | 188 | 4.8 | 11.3 | 0.00 | 0.64 | 0.10 | 73 | 1014.4 |
| 20260505230031 | 18 | 0 | 0.0 | 9.7 | 0.00 | 0.64 | 0.10 | 70 | 1014.4 |
| 20260505225512 | 18 | 293 | 4.8 | 9.7 | 0.00 | 0.64 | 0.10 | 72 | 1014.5 |
| 20260505225011 | 18 | 226 | 6.4 | 11.3 | 0.00 | 0.64 | 0.10 | 68 | 1014.5 |
| 20260505224528 | 18 | 0 | 1.6 | 11.3 | 0.00 | 0.64 | 0.10 | 66 | 1014.5 |
| 20260505224013 | 20 | 208 | 3.2 | 9.7 | 0.00 | 0.64 | 0.10 | 66 | 1014.5 |
| 20260505223514 | 20 | 214 | 6.4 | 9.7 | 0.00 | 0.64 | 0.10 | 68 | 1014.5 |
| 20260505223027 | 19 | 179 | 3.2 | 9.7 | 0.00 | 0.64 | 0.10 | 67 | 1014.7 |
| 20260505222513 | 19 | 0 | 3.2 | 11.3 | 0.00 | 0.64 | 0.10 | 65 | 1014.7 |
| 20260505222016 | 19 | 153 | 1.6 | 11.3 | 0.00 | 0.64 | 0.10 | 65 | 1014.9 |
| 20260505221530 | 19 | 217 | 1.6 | 9.7 | 0.00 | 0.64 | 0.10 | 72 | 1015.0 |
| 20260505221011 | 18 | 155 | 4.8 | 9.7 | 0.00 | 0.64 | 0.10 | 69 | 1014.9 |
| 20260505220512 | 18 | 215 | 1.6 | 11.3 | 0.00 | 0.64 | 0.10 | 73 | 1015.0 |
| 20260505220044 | 18 | 219 | 1.6 | 11.3 | 0.00 | 0.64 | 0.10 | 72 | 1014.9 |
| 20260505215516 | 17 | 198 | 3.2 | 11.3 | 0.00 | 0.64 | 0.10 | 73 | 1015.0 |
| 20260505215012 | 17 | 244 | 6.4 | 12.9 | 0.00 | 0.64 | 0.10 | 76 | 1015.1 |
| 20260505214533 | 17 | 221 | 6.4 | 12.9 | 0.00 | 0.64 | 0.10 | 75 | 1015.1 |
| 20260505214014 | 17 | 236 | 6.4 | 14.5 | 0.00 | 0.64 | 0.10 | 77 | 1015.2 |
| 20260505213514 | 17 | 248 | 6.4 | 14.5 | 0.00 | 0.64 | 0.10 | 77 | 1015.1 |
| 20260505213032 | 16 | 242 | 6.4 | 14.5 | 0.00 | 0.64 | 0.10 | 78 | 1015.1 |
| 20260505212513 | 16 | 253 | 6.4 | 11.3 | 0.00 | 0.64 | 0.10 | 77 | 1015.1 |
| 20260505212014 | 16 | 229 | 4.8 | 14.5 | 0.00 | 0.64 | 0.10 | 77 | 1015.2 |
| 20260505211538 | 16 | 250 | 9.7 | 14.5 | 0.00 | 0.64 | 0.10 | 80 | 1015.2 |
| 20260505211013 | 16 | 234 | 9.7 | 17.7 | 0.00 | 0.64 | 0.10 | 78 | 1015.2 |
| 20260505210513 | 16 | 257 | 8.0 | 17.7 | 0.00 | 0.64 | 0.10 | 78 | 1015.2 |
| 20260505210033 | 17 | 258 | 11.3 | 17.7 | 0.00 | 0.64 | 0.10 | 78 | 1015.2 |
| 20260505205516 | 17 | 251 | 12.9 | 17.7 | 0.00 | 0.64 | 0.10 | 76 | 1015.2 |
| 20260505205012 | 17 | 251 | 11.3 | 17.7 | 0.00 | 0.64 | 0.10 | 74 | 1015.2 |
| 20260505204529 | 18 | 204 | 8.0 | 16.1 | 0.00 | 0.64 | 0.10 | 72 | 1015.2 |
| 20260505204012 | 18 | 234 | 6.4 | 14.5 | 0.00 | 0.64 | 0.10 | 71 | 1015.1 |
| 20260505203511 | 18 | 0 | 4.8 | 14.5 | 0.00 | 0.64 | 0.10 | 67 | 1015.2 |
| 20260505203033 | 18 | 180 | 4.8 | 12.9 | 0.00 | 0.64 | 0.10 | 71 | 1015.1 |
| 20260505202515 | 18 | 122 | 1.6 | 6.4 | 0.00 | 0.64 | 0.10 | 73 | 1015.1 |
| 20260505202012 | 17 | 89 | 1.6 | 9.7 | 0.00 | 0.64 | 0.10 | 80 | 1015.1 |
| 20260505201530 | 16 | 92 | 0.0 | 9.7 | 0.00 | 0.64 | 0.10 | 77 | 1015.2 |
| 20260505201013 | 16 | 96 | 4.8 | 9.7 | 0.00 | 0.64 | 0.10 | 73 | 1015.2 |
| 20260505200551 | 16 | 244 | 1.6 | 9.7 | 0.00 | 0.64 | 0.10 | 74 | 1015.2 |
| 20260505200030 | 16 | 27 | 3.2 | 9.7 | 0.00 | 0.64 | 0.10 | 75 | 1015.3 |
| 20260505195512 | 16 | 0 | 4.8 | 9.7 | 0.00 | 0.64 | 0.10 | 74 | 1015.3 |
| 20260505195013 | 16 | 0 | 0.0 | 9.7 | 0.00 | 0.64 | 0.10 | 74 | 1015.3 |
| 20260505194528 | 16 | 177 | 4.8 | 9.7 | 0.00 | 0.64 | 0.10 | 77 | 1015.3 |
| 20260505194018 | 16 | 0 | 3.2 | 8.0 | 0.00 | 0.64 | 0.10 | 79 | 1015.3 |
| 20260505193512 | 16 | 237 | 1.6 | 8.0 | 0.00 | 0.64 | 0.10 | 75 | 1015.3 |
| 20260505193035 | 16 | 0 | 0.0 | 9.7 | 0.00 | 0.64 | 0.10 | 74 | 1015.3 |
| 20260505192511 | 16 | 0 | 4.8 | 9.7 | 0.00 | 0.64 | 0.10 | 77 | 1015.3 |
| 20260505192014 | 15 | 0 | 1.6 | 8.0 | 0.00 | 0.64 | 0.10 | 83 | 1015.3 |
| 20260505191531 | 15 | 0 | 0.0 | 11.3 | 0.00 | 0.64 | 0.10 | 77 | 1015.3 |
| 20260505191013 | 15 | 248 | 3.2 | 11.3 | 0.00 | 0.64 | 0.10 | 80 | 1015.3 |
| 20260505190517 | 15 | 244 | 4.8 | 11.3 | 0.00 | 0.64 | 0.10 | 81 | 1015.4 |
| 20260505190029 | 16 | 273 | 4.8 | 12.9 | 0.00 | 0.64 | 0.10 | 78 | 1015.4 |
| 20260505185518 | 16 | 203 | 3.2 | 12.9 | 0.00 | 0.64 | 0.10 | 82 | 1015.4 |
| 20260505185015 | 16 | 279 | 6.4 | 12.9 | 0.00 | 0.64 | 0.10 | 78 | 1015.4 |
| 20260505184531 | 16 | 210 | 6.4 | 12.9 | 0.00 | 0.64 | 0.10 | 80 | 1015.4 |
| 20260505184013 | 16 | 194 | 6.4 | 11.3 | 0.00 | 0.64 | 0.10 | 80 | 1015.3 |
| 20260505183514 | 15 | 219 | 4.8 | 11.3 | 0.00 | 0.64 | 0.10 | 81 | 1015.3 |
| 20260505183038 | 15 | 195 | 4.8 | 11.3 | 0.00 | 0.64 | 0.10 | 83 | 1015.3 |
| 20260505182512 | 15 | 213 | 6.4 | 14.5 | 0.00 | 0.64 | 0.10 | 83 | 1015.3 |
| 20260505182016 | 15 | 223 | 6.4 | 14.5 | 0.00 | 0.64 | 0.10 | 84 | 1015.3 |
| 20260505181531 | 14 | 247 | 0.0 | 9.7 | 0.00 | 0.64 | 0.10 | 85 | 1015.3 |
| 20260505181018 | 14 | 223 | 3.2 | 11.3 | 0.00 | 0.64 | 0.10 | 83 | 1015.2 |
| 20260505180511 | 14 | 207 | 4.8 | 12.9 | 0.00 | 0.64 | 0.10 | 82 | 1015.2 |
| 20260505180030 | 14 | 233 | 4.8 | 12.9 | 0.00 | 0.64 | 0.10 | 84 | 1015.1 |
| 20260505175514 | 15 | 226 | 6.4 | 11.3 | 0.00 | 0.64 | 0.10 | 85 | 1015.0 |
| 20260505175013 | 14 | 263 | 4.8 | 11.3 | 0.00 | 0.64 | 0.10 | 85 | 1015.0 |
| 20260505174529 | 15 | 263 | 4.8 | 11.3 | 0.00 | 0.64 | 0.10 | 84 | 1015.0 |
| 20260505174014 | 15 | 219 | 3.2 | 11.3 | 0.00 | 0.64 | 0.10 | 84 | 1015.0 |
| 20260505173513 | 14 | 0 | 4.8 | 11.3 | 0.00 | 0.64 | 0.10 | 87 | 1014.9 |
| 20260505173030 | 14 | 219 | 3.2 | 11.3 | 0.00 | 0.64 | 0.10 | 84 | 1014.9 |
| 20260505172516 | 14 | 237 | 4.8 | 9.7 | 0.00 | 0.64 | 0.10 | 86 | 1015.0 |
| 20260505172012 | 14 | 184 | 3.2 | 9.7 | 0.00 | 0.64 | 0.10 | 88 | 1015.0 |
| 20260505171530 | 13 | 236 | 4.8 | 11.3 | 0.00 | 0.64 | 0.10 | 89 | 1015.0 |
| 20260505171014 | 13 | 146 | 1.6 | 11.3 | 0.00 | 0.64 | 0.10 | 89 | 1014.9 |
| 20260505170514 | 13 | 180 | 4.8 | 9.7 | 0.00 | 0.64 | 0.10 | 90 | 1014.9 |